Starlink 32222

operational
NORAD ID: 60435 Int'l Des: 2024-144 Owner: SPXS Country: US Constellation: starlink
LEOCIRCULAR

关于 Starlink 32222

正在加载描述...

实时位置

正在加载3D地球...

即将过境

高度历史

Altitude vs Time

uPlot chart will show altitude changes over time

两行轨道根数

1 60435U 24144L 25350.96312853 .00001512 00000-0 63159-4 0 9992
2 60435 53.1619 241.3718 0001416 68.4220 291.6932 15.30204252 76644
Epoch: Dec 16, 2025 • Age: 8 hours

当前状态

高度 480.8 km
速度 7.63 km/s
星下点 52.86°N, 143.41°E
发射日期 Aug 12, 2024
运行时间 1.3 years
类型 internet

技术详情

分类 Payload
质量 730.00 kg
干质量 700.00 kg
总质量 730.00 kg
长度 0.30 m
直径 4.10 m
跨度 29.00 m
形状 Box + pan
制造商 SPXS
平台类型 Starlink V2M
阶段状态 In Orbit
所有者/国家 SPXS/US

大型星座

Loading constellations...